Regional Weather Roundup
Issued by NWS

Home | Current Version | Previous Version | Text Only | Print | Product List | Glossary Off
Versions: 1 2 3 4 5 6 7 8 9 10 11 12 13 14 15 16 17 18 19 20 21 22 23 24 25 26 27 28 29 30 31 32 33 34 35 36 37 38 39 40 41 42 43 44 45 46 47 48 49 50

805
ASUS45 KBOU 210607
RWRCO

WEATHER ROUNDUP FOR COLORADO
NATIONAL WEATHER SERVICE DENVER/BOULDER CO
1200 AM MDT FRI JUL 21 2017

NOTE: "FAIR" INDICATES FEW OR NO CLOUDS BELOW 12000 FEET WITH NO
SIGNIFICANT WEATHER AND/OR OBSTRUCTIONS TO VISIBILITY.

COZ001>005-013-030-031-210700-
...NORTHWEST COLORADO...

CITY           SKY/WX    TMP DP  RH WIND       PRES   REMARKS
CRAIG          FAIR      66  48  52 SE5       30.21F
HAYDEN         FAIR      68  43  40 E7        30.24S
MEEKER         FAIR      63  55  75 SE13      30.25F
RABBIT EARS PA FAIR      54  41  62 S5        30.55S
STEAMBOAT SPGS FAIR      64  48  56 CALM      30.27R
WALDEN         FAIR      54  45  71 SE6       30.37F
$$

COZ006>008-011-210700-
...WEST CENTRAL VALLEYS...

CITY           SKY/WX    TMP DP  RH WIND       PRES   REMARKS
GRAND JUNCTION FAIR      75  54  47 E6        30.13F
MONTROSE       MOCLDY    70  52  52 SE5       30.24R
EAGLE          FAIR      64  52  64 SE5       30.30S
RIFLE          FAIR      68  58  70 E7        30.20F
DELTA          FAIR      77  51  39 SE3       30.18S
NUCLA          MOCLDY    68  50  52 SE6       30.28S
$$

COZ017>023-064>068-210700-
...SOUTHWEST COLORADO...

CITY           SKY/WX    TMP DP  RH WIND       PRES   REMARKS
DURANGO        FAIR      62  52  69 SW6       30.29S
CORTEZ         MOCLDY    64  57  78 E6        30.26R
PAGOSA SPRINGS MOCLDY    60  50  69 CALM      30.38S
TELLURIDE      MOCLDY    57  50  77 SE13      30.50F
WOLF CREEK PAS FAIR      46  37  71 S10       30.73S
$$

COZ009-010-012-014-032>034-037-058>063-210700-
...CENTRAL COLORADO...

CITY           SKY/WX    TMP DP  RH WIND       PRES   REMARKS
ASPEN          FAIR      56  50  80 S5        30.36F
BUENA VISTA    CLOUDY    61  52  72 CALM      30.40F
COPPER MTN     FAIR      55  37  50 SW5       30.69F
BERTHOUD PASS  FAIR      48  34  57 W17       30.71F
COTTONWOOD PAS LGT RAIN  59  46  63 SE5       30.55S
GUNNISON       FAIR      61  49  64 N6        30.39R
KREMMLING      FAIR      61  55  82 CALM      30.35F
LEADVILLE      FAIR      47  43  86 NE3       30.52R
MONARCH PASS   CLOUDY    50  41  71 N7        30.79F
SALIDA         FAIR      64  55  74 SW10      30.44F
SUNLIGHT       FAIR      52  41  66 S6        30.62F
WILKERSON PASS FAIR      52  41  66 SW6G16    30.67S
$$

COZ069>075-210700-
...SAN LUIS VALLEY/SANGRE DE CRISTO MOUNTAINS...

CITY           SKY/WX    TMP DP  RH WIND       PRES   REMARKS
ALAMOSA        FAIR      63  50  62 E5        30.34R
DEL NORTE      MOCLDY    62  49  63 W16       30.38S
LA VETA PASS   NOT AVBL
SAGUACHE         N/A    N/A N/A N/A MISG        N/A
$$

COZ035-036-038>040-210700-
...NORTHERN COLORADO FRONT RANGE...

CITY           SKY/WX    TMP DP  RH WIND       PRES   REMARKS
DENVER INTL AP MOCLDY    74  51  44 SW15      30.11F
DMNS CITY PARK   N/A     71  53  52 SW8G16    30.11F
AURORA         MOCLDY    71  54  55 SW15      30.14F
FRONT RANGE AP FAIR      73  54  49 SW10      30.13F
ERIE MUNI ARPT FAIR      72  49  45 CALM      30.09S
BOULDER MUN AP FAIR      79  45  29 CALM      30.09S
CENTENNIAL     MOCLDY    73  49  42 SW17G29   30.17F
BROOMFIELD     FAIR      72  48  43 SW6       30.14S
FORT COLLINS   FAIR      72  52  49 CALM      30.08F
LONGMONT       FAIR      76  53  43 NE3       30.10S
$$

COZ041-046-047-076>085-087-088-210700-
...PIKES PEAK/PALMER DIVIDE AND SOUTHERN FOOTHILLS...

CITY           SKY/WX    TMP DP  RH WIND       PRES   REMARKS
COLO. SPRINGS  MOCLDY    74  52  46 NW9       30.21S
A. F. ACADEMY  FAIR      70  49  48 N8        30.24S
SCHRIEVER AFB  MOCLDY    72  48  41 NW13G22   30.21S
CHEYENNE MTN   FAIR      75  45  33 NW13      30.21F
ELLICOTT       FAIR       1 N/A N/A CALM      30.18F
FALCON           N/A     71  46  40 W17G26    30.28R
FORT CARSON    FAIR      71  52  50 N9        30.16F
LIMON          FAIR      65  59  81 CALM      30.12F
MONUMENT HILL  FAIR      63  52  67 W12G17    30.30R
CANON CITY     CLEAR     75  55  50 W14       30.16R
WALSENBURG     FAIR      70  48  46 W10       30.20S
TRINIDAD       FAIR      79  45  29 NW7G18    30.15S
$$

COZ042>045-048>051-090-091-210700-
...NORTHEAST COLORADO...

CITY           SKY/WX    TMP DP  RH WIND       PRES   REMARKS
GREELEY ARPT   FAIR      73  57  57 SE9       30.05F
AKRON          FAIR      79  51  37 SW17      30.03F
BURLINGTON     FAIR      72  64  76 SW8       30.03R
WRAY           NOT AVBL
YUMA           FAIR      73  59  60 SW5       30.00S
STERLING       FAIR      73  63  68 N7        29.97F
HOLYOKE        FAIR      73  66  78 CALM      29.96S
FORT MORGAN    FAIR      74  55  51 W6        30.05S
$$

COZ086-089-092>099-210700-
...SOUTHEAST COLORADO...

CITY           SKY/WX    TMP DP  RH WIND       PRES   REMARKS
PUEBLO         FAIR      78  54  43 W6        30.07R
LA JUNTA       FAIR      81  52  36 S9        30.02S
LAMAR          FAIR      80  53  39 S18G25    29.96F
SPRINGFIELD      N/A     73  52  47 S14       30.06F
$$




USA.gov is the U.S. government's official web portal to all federal, state and local government web resources and services.